QPF
0.00 0.00 0.00 0.00 0.00 0.00 0.00 0.00 0.00 0.00 0.00 0.00 0.00 0.00 0.00 0.00 0.00 0.00 0.00 0.00 0.00 0.00 0.00 0.00 0.00 0.00 0.00 0.00 0.00 0.00 0.00 0.00 0.00 0.00 0.00 0.00 0.00 0.00 0.00 0.00 0.00 0.01 0.00 0.00
0.00 0.00 0.00 0.00 0.00 0.00 0.00 0.00 0.00 0.00 0.00 0.00 0.00 0.00 0.00 0.00 0.00 0.00 0.00 0.00 0.00 0.00 0.00 0.00 0.00 0.00 0.00 0.00 0.00 0.00 0.00 0.00 0.00 0.00 0.00 0.00 0.00 0.00 0.00 0.00 0.00 0.01 0.01 0.00
0.00 0.00 0.00 0.00 0.00 0.00 0.00 0.00 0.00 0.00 0.00 0.00 0.00 0.00 0.00 0.00 0.00 0.00 0.00 0.00 0.00 0.00 0.00 0.00 0.00 0.00 0.00 0.00 0.00 0.00 0.00 0.00 0.00 0.00 0.00 0.00 0.00 0.00 0.00 0.00 0.00 0.00 0.02 0.01
0.00 0.00 0.00 0.00 0.00 0.00 0.00 0.00 0.00 0.00 0.00 0.00 0.00 0.00 0.00 0.00 0.00 0.00 0.00 0.00 0.00 0.00 0.00 0.00 0.00 0.00 0.00 0.00 0.00 0.00 0.00 0.00 0.00 0.00 0.00 0.00 0.00 0.00 0.00 0.00 0.00 0.00 0.00 0.02
0.00 0.00 0.00 0.00 0.00 0.00 0.00 0.00 0.00 0.00 0.00 0.00 0.00 0.00 0.00 0.00 0.00 0.00 0.00 0.00 0.00 0.00 0.00 0.00 0.00 0.00 0.00 0.00 0.00 0.00 0.00 0.00 0.00 0.00 0.00 0.00 0.00 0.00 0.00 0.00 0.00 0.00 0.00 0.00
0.00 0.00 0.00 0.00 0.00 0.00 0.00 0.00 0.00 0.00 0.00 0.00 0.00 0.00 0.00 0.00 0.00 0.00 0.00 0.00 0.00 0.00 0.00 0.00 0.00 0.00 0.00 0.00 0.00 0.00 0.00 0.00 0.00 0.00 0.00 0.00 0.00 0.00 0.00 0.00 0.00 0.00 0.00 0.00
0.00 0.00 0.00 0.00 0.00 0.00 0.00 0.00 0.00 0.00 0.00 0.00 0.00 0.00 0.00 0.00 0.00 0.00 0.00 0.00 0.00 0.00 0.00 0.00 0.00 0.00 0.00 0.00 0.00 0.00 0.00 0.00 0.00 0.00 0.00 0.00 0.00 0.00 0.00 0.00 0.00 0.00 0.00 0.00
0.00 0.00 0.00 0.00 0.00 0.00 0.00 0.00 0.00 0.00 0.00 0.00 0.00 0.00 0.00 0.00 0.00 0.00 0.00 0.00 0.00 0.00 0.00 0.00 0.00 0.00 0.00 0.00 0.00 0.00 0.00 0.00 0.00 0.00 0.00 0.00 0.00 0.00 0.00 0.00 0.00 0.00 0.00 0.00
0.00 0.00 0.00 0.00 0.00 0.00 0.00 0.00 0.00 0.00 0.00 0.00 0.00 0.00 0.00 0.00 0.00 0.00 0.00 0.00 0.00 0.00 0.00 0.00 0.00 0.00 0.00 0.00 0.00 0.00 0.00 0.00 0.00 0.00 0.00 0.00 0.00 0.00 0.00 0.00 0.00 0.00 0.00 0.00
0.00 0.00 0.00 0.00 0.00 0.00 0.00 0.00 0.00 0.00 0.00 0.00 0.00 0.00 0.00 0.00 0.00 0.00 0.00 0.00 0.00 0.00 0.00 0.00 0.00 0.00 0.00 0.00 0.00 0.00 0.00 0.00 0.00 0.00 0.00 0.00 0.00 0.00 0.00 0.00 0.00 0.00 0.00 0.00
0.00 0.00 0.00 0.00 0.00 0.00 0.00 0.00 0.00 0.00 0.00 0.00 0.00 0.00 0.00 0.00 0.00 0.00 0.00 0.00 0.00 0.00 0.00 0.00 0.00 0.00 0.00 0.00 0.00 0.00 0.00 0.00 0.00 0.00 0.00 0.00 0.00 0.00 0.00 0.00 0.00 0.00 0.00 0.00
0.00 0.00 0.00 0.00 0.00 0.00 0.00 0.00 0.00 0.00 0.00 0.00 0.00 0.00 0.00 0.00 0.00 0.00 0.00 0.00 0.00 0.00 0.00 0.00 0.00 0.00 0.00 0.00 0.00 0.00 0.00 0.00 0.00 0.00 0.00 0.00 0.00 0.00 0.00 0.00 0.00 0.00 0.00 0.00
0.00 0.00 0.00 0.00 0.00 0.00 0.00 0.00 0.00 0.00 0.00 0.00 0.00 0.00 0.00 0.00 0.00 0.00 0.00 0.00 0.00 0.00 0.00 0.00 0.00 0.00 0.00 0.00 0.00 0.00 0.00 0.00 0.00 0.00 0.00 0.00 0.00 0.00 0.00 0.00 0.00 0.00 0.00 0.00
0.00 0.00 0.00 0.00 0.00 0.00 0.00 0.00 0.00 0.00 0.00 0.00 0.00 0.00 0.00 0.00 0.00 0.00 0.00 0.00 0.00 0.00 0.00 0.00 0.00 0.00 0.00 0.00 0.00 0.00 0.00 0.00 0.00 0.00 0.00 0.00 0.00 0.00 0.00 0.00 0.00 0.00 0.00 0.00
0.00 0.00 0.00 0.00 0.00 0.00 0.00 0.00 0.00 0.00 0.00 0.00 0.00 0.00 0.00 0.00 0.00 0.00 0.00 0.00 0.00 0.00 0.00 0.00 0.00 0.00 0.00 0.00 0.00 0.00 0.00 0.00 0.00 0.00 0.00 0.00 0.00 0.00 0.00 0.00 0.00 0.00 0.00 0.00
0.00 0.00 0.00 0.00 0.00 0.00 0.00 0.00 0.00 0.00 0.00 0.00 0.00 0.00 0.00 0.00 0.00 0.00 0.00 0.00 0.00 0.00 0.00 0.00 0.00 0.00 0.00 0.00 0.00 0.00 0.00 0.00 0.00 0.00 0.00 0.00 0.00 0.00 0.00 0.00 0.00 0.00 0.00 0.00
0.00 0.00 0.00 0.00 0.00 0.00 0.00 0.00 0.00 0.00 0.00 0.00 0.00 0.00 0.00 0.00 0.00 0.00 0.00 0.00 0.00 0.00 0.00 0.00 0.00 0.00 0.00 0.00 0.00 0.00 0.00 0.00 0.00 0.00 0.00 0.00 0.00 0.00 0.00 0.00 0.00 0.00 0.00 0.00
0.00 0.00 0.00 0.00 0.00 0.00 0.00 0.00 0.00 0.00 0.00 0.00 0.00 0.00 0.00 0.00 0.00 0.00 0.00 0.00 0.00 0.00 0.00 0.00 0.00 0.00 0.00 0.00 0.00 0.00 0.00 0.00 0.00 0.00 0.00 0.00 0.00 0.00 0.00 0.00 0.00 0.00 0.00 0.00
0.00 0.00 0.00 0.00 0.00 0.00 0.00 0.00 0.00 0.00 0.00 0.00 0.00 0.00 0.00 0.00 0.00 0.00 0.00 0.00 0.00 0.00 0.00 0.00 0.00 0.00 0.00 0.00 0.00 0.00 0.00 0.00 0.00 0.00 0.00 0.00 0.00 0.00 0.00 0.00 0.00 0.00 0.00 0.00
0.00 0.00 0.00 0.00 0.00 0.00 0.00 0.00 0.00 0.00 0.00 0.00 0.00 0.00 0.00 0.00 0.00 0.00 0.00 0.00 0.00 0.00 0.00 0.00 0.00 0.00 0.00 0.00 0.00 0.00 0.00 0.00 0.00 0.00 0.00 0.00 0.00 0.00 0.00 0.00 0.00 0.00 0.00 0.00
0.00 0.00 0.00 0.00 0.00 0.00 0.00 0.00 0.00 0.00 0.00 0.00 0.00 0.00 0.00 0.00 0.00 0.00 0.00 0.00 0.00 0.00 0.00 0.00 0.00 0.00 0.00 0.00 0.00 0.00 0.00 0.00 0.00 0.00 0.00 0.00 0.00 0.00 0.00 0.00 0.00 0.00 0.00 0.00
0.00 0.00 0.00 0.00 0.00 0.00 0.00 0.00 0.00 0.00 0.00 0.00 0.00 0.00 0.00 0.00 0.00 0.00 0.00 0.00 0.00 0.00 0.00 0.00 0.00 0.00 0.00 0.00 0.00 0.00 0.00 0.00 0.00 0.00 0.00 0.00 0.00 0.00 0.00 0.00 0.00 0.00 0.00 0.00
0.00 0.00 0.00 0.00 0.00 0.00 0.00 0.00 0.00 0.00 0.00 0.00 0.00 0.00 0.00 0.00 0.00 0.00 0.00 0.00 0.00 0.00 0.00 0.00 0.00 0.00 0.00 0.00 0.00 0.00 0.00 0.00 0.00 0.00 0.00 0.00 0.00 0.00 0.00 0.00 0.00 0.00 0.00 0.00
0.00 0.00 0.00 0.00 0.00 0.00 0.00 0.00 0.00 0.00 0.00 0.00 0.00 0.00 0.00 0.00 0.00 0.00 0.00 0.00 0.00 0.00 0.00 0.00 0.00 0.00 0.00 0.00 0.00 0.00 0.00 0.00 0.00 0.00 0.00 0.00 0.00 0.00 0.00 0.00 0.00 0.00 0.00 0.00
0.00 0.00 0.00 0.00 0.00 0.00 0.00 0.00 0.00 0.00 0.00 0.00 0.00 0.00 0.00 0.00 0.00 0.00 0.00 0.00 0.00 0.00 0.00 0.00 0.00 0.00 0.00 0.00 0.00 0.00 0.00 0.00 0.00 0.00 0.00 0.00 0.00 0.00 0.00 0.00 0.00 0.00 0.00 0.00
0.00 0.00 0.00 0.00 0.00 0.00 0.00 0.00 0.00 0.00 0.00 0.00 0.00 0.00 0.00 0.00 0.00 0.00 0.00 0.00 0.00 0.00 0.00 0.00 0.00 0.00 0.00 0.00 0.00 0.00 0.00 0.00 0.00 0.00 0.00 0.00 0.00 0.00 0.00 0.00 0.00 0.00 0.00 0.00
MSLP
1015.41 1015.98 1016.51 1016.74 1016.82 1017.18 1017.52 1017.50 1017.29 1017.11 1017.03 1017.36 1017.57 1017.61 1017.47 1016.66 1016.72 1016.67 1016.60 1016.24 1016.03 1015.75 1014.61 1014.80 1014.81 1014.87 1015.23 1015.56 1015.95 1015.93 1016.26 1016.45 1017.18 1017.81 1018.30 1018.72 1018.81 1019.19 1019.43 1019.54 1019.92 1020.56 1020.96 1021.30
1016.22 1016.02 1016.22 1016.67 1017.10 1017.12 1017.55 1017.50 1017.54 1017.51 1017.58 1017.87 1018.03 1017.86 1017.50 1017.02 1016.28 1016.04 1016.00 1015.61 1015.52 1015.37 1014.55 1014.43 1014.60 1014.71 1014.83 1014.81 1015.02 1015.43 1015.49 1015.68 1016.10 1016.69 1017.03 1017.59 1018.18 1018.58 1018.58 1018.81 1019.21 1019.68 1020.11 1020.57
1015.89 1015.78 1016.06 1016.66 1017.00 1017.40 1017.63 1017.77 1017.71 1018.15 1018.29 1018.59 1018.83 1018.40 1017.89 1016.47 1016.03 1015.31 1015.15 1015.43 1015.31 1015.15 1014.85 1014.35 1014.43 1014.46 1014.40 1014.59 1014.39 1014.49 1014.50 1014.73 1015.08 1015.60 1016.63 1017.39 1017.95 1018.60 1018.78 1018.73 1018.84 1018.84 1019.25 1019.79
1016.09 1015.77 1016.06 1016.58 1016.88 1017.10 1017.64 1017.55 1017.74 1018.66 1019.08 1019.73 1019.87 1019.54 1018.23 1016.93 1016.24 1015.59 1015.20 1015.38 1015.35 1015.11 1014.80 1014.81 1014.56 1014.48 1014.62 1014.42 1014.45 1014.38 1014.30 1014.50 1014.66 1015.14 1015.79 1016.29 1016.78 1017.33 1017.30 1017.60 1018.14 1018.34 1018.60 1018.85
1015.80 1015.95 1016.02 1016.49 1016.51 1016.82 1017.27 1017.69 1018.53 1019.30 1020.08 1020.42 1020.77 1020.58 1018.03 1017.20 1016.58 1015.95 1015.65 1015.72 1015.76 1015.63 1015.49 1015.27 1015.28 1015.11 1014.90 1014.60 1014.53 1014.50 1014.38 1014.44 1014.67 1015.01 1015.29 1015.82 1016.25 1016.42 1016.79 1017.28 1017.73 1018.10 1018.28 1018.28
1015.89 1015.81 1015.92 1016.00 1016.51 1016.82 1017.40 1018.37 1019.62 1020.55 1021.19 1021.60 1020.74 1020.51 1018.85 1017.33 1016.43 1016.17 1016.15 1016.24 1016.27 1016.11 1015.87 1015.69 1015.43 1015.36 1015.17 1014.97 1014.79 1014.80 1014.75 1014.70 1014.73 1014.84 1015.16 1015.49 1015.88 1016.43 1016.97 1017.31 1017.54 1017.76 1017.97 1018.15
1016.24 1016.09 1016.07 1016.08 1016.76 1017.29 1017.73 1019.00 1020.80 1021.98 1022.43 1022.33 1021.22 1020.91 1018.63 1016.73 1016.44 1016.46 1016.62 1016.85 1016.93 1016.76 1016.51 1016.44 1016.43 1016.08 1015.88 1015.76 1015.45 1015.11 1015.16 1015.09 1015.03 1015.23 1015.36 1015.55 1015.71 1016.04 1016.39 1016.74 1017.11 1017.58 1017.82 1017.92
1016.23 1016.68 1016.13 1015.94 1016.24 1017.13 1018.02 1018.56 1020.18 1021.80 1023.00 1022.64 1021.64 1020.13 1017.50 1016.58 1016.63 1016.77 1016.97 1017.21 1017.31 1017.37 1017.31 1017.26 1017.06 1016.91 1016.77 1016.43 1016.02 1015.63 1015.55 1015.56 1015.54 1015.55 1015.52 1015.63 1015.82 1016.09 1016.30 1016.54 1016.78 1016.87 1017.00 1017.15
1015.92 1016.07 1015.94 1015.94 1016.07 1016.47 1018.11 1018.71 1019.50 1021.38 1023.65 1023.08 1021.22 1019.48 1017.23 1016.57 1016.94 1017.34 1017.56 1017.48 1017.81 1017.72 1017.42 1017.37 1017.25 1017.28 1017.42 1017.11 1016.59 1016.34 1016.20 1016.02 1015.85 1015.74 1015.83 1015.78 1015.86 1016.08 1016.14 1016.15 1016.35 1016.49 1016.61 1016.75
1014.82 1015.95 1016.34 1016.39 1016.39 1016.87 1016.96 1017.92 1019.59 1021.06 1022.60 1022.88 1021.23 1019.96 1018.03 1017.65 1017.74 1017.69 1017.83 1018.06 1018.03 1017.74 1017.50 1017.66 1017.51 1017.35 1017.25 1017.04 1016.88 1016.67 1016.39 1016.40 1016.19 1016.13 1015.98 1015.94 1015.73 1015.86 1015.99 1016.11 1016.20 1016.27 1016.35 1016.48
1014.60 1015.21 1017.25 1017.08 1016.72 1016.72 1017.57 1017.90 1018.95 1019.80 1020.98 1021.56 1021.10 1019.35 1017.17 1017.52 1017.68 1017.88 1017.90 1018.33 1018.23 1018.20 1018.02 1018.01 1017.96 1017.86 1017.78 1017.49 1017.27 1017.12 1016.90 1016.75 1016.67 1016.61 1016.60 1016.46 1016.04 1015.93 1015.92 1015.91 1015.92 1015.95 1015.99 1016.02
1014.56 1015.39 1017.01 1016.93 1016.73 1016.55 1016.59 1017.13 1017.77 1019.29 1020.77 1020.86 1020.37 1018.50 1017.29 1017.53 1017.50 1017.57 1018.17 1018.07 1018.31 1018.45 1018.48 1018.55 1018.53 1018.48 1018.38 1018.37 1018.07 1017.86 1017.47 1017.28 1017.23 1017.06 1016.86 1016.44 1016.01 1015.95 1015.89 1015.95 1015.93 1015.84 1015.60 1015.56
1014.33 1015.20 1017.05 1017.56 1017.53 1017.13 1017.08 1017.46 1017.74 1018.42 1019.30 1019.88 1020.07 1018.32 1017.84 1017.89 1018.12 1018.09 1018.28 1018.49 1018.72 1018.91 1018.95 1019.09 1019.12 1019.24 1019.18 1019.15 1018.90 1018.62 1018.35 1018.08 1017.74 1017.47 1017.00 1016.64 1016.45 1016.40 1016.20 1015.95 1015.70 1015.54 1015.36 1015.21
1014.35 1015.59 1016.28 1016.63 1016.95 1016.97 1017.84 1017.87 1018.10 1018.29 1019.24 1019.03 1018.34 1018.35 1018.20 1017.87 1017.88 1018.37 1018.71 1019.00 1019.15 1019.46 1019.59 1019.51 1019.38 1019.20 1019.09 1019.20 1019.24 1018.98 1018.47 1018.33 1018.16 1017.93 1017.56 1017.01 1016.79 1016.56 1016.29 1015.97 1015.70 1015.48 1015.34 1015.20
1015.21 1016.79 1017.47 1017.67 1017.75 1017.81 1018.04 1018.14 1018.24 1018.43 1018.33 1018.65 1018.15 1018.34 1017.95 1017.94 1018.05 1018.45 1018.94 1018.88 1018.89 1019.23 1019.35 1019.60 1019.92 1019.88 1019.66 1019.34 1019.17 1018.95 1018.86 1018.58 1018.31 1017.77 1017.57 1017.49 1017.16 1016.75 1016.35 1015.95 1015.64 1015.35 1015.11 1014.94
1016.59 1017.93 1018.80 1019.55 1019.51 1019.41 1019.17 1018.70 1018.57 1018.59 1018.53 1018.37 1018.30 1017.53 1017.61 1018.09 1018.63 1019.03 1019.28 1019.46 1019.71 1019.88 1020.06 1020.21 1020.42 1020.49 1020.41 1020.31 1020.08 1019.78 1019.60 1019.37 1019.16 1018.74 1018.20 1017.86 1017.57 1017.05 1016.50 1015.98 1015.61 1015.24 1014.77 1014.44
1017.91 1018.89 1019.97 1021.13 1020.97 1020.60 1020.21 1018.38 1018.43 1018.56 1018.20 1018.10 1018.01 1017.18 1017.79 1018.73 1019.01 1019.37 1019.72 1019.77 1019.97 1020.21 1020.46 1020.67 1020.84 1020.85 1020.70 1020.68 1020.63 1020.45 1020.20 1019.79 1019.46 1019.17 1018.81 1018.28 1017.66 1017.33 1016.79 1016.17 1015.64 1015.19 1014.86 1014.51
1018.31 1019.51 1020.86 1022.49 1022.53 1021.42 1018.80 1018.39 1018.32 1018.24 1017.76 1017.66 1017.46 1017.67 1018.16 1018.59 1019.07 1019.25 1019.42 1019.64 1020.05 1020.37 1020.66 1020.90 1020.91 1020.97 1020.98 1020.81 1020.63 1020.48 1020.18 1019.92 1019.73 1019.32 1018.91 1018.59 1018.11 1017.40 1016.95 1016.50 1015.83 1015.37 1014.95 1014.58
1018.55 1019.62 1021.99 1023.35 1023.53 1021.19 1018.86 1018.33 1018.22 1018.15 1017.64 1017.26 1017.70 1017.99 1018.35 1018.76 1019.36 1019.51 1019.36 1019.62 1019.93 1020.22 1020.49 1020.77 1021.08 1021.26 1021.20 1021.22 1021.12 1021.01 1020.73 1020.48 1020.08 1019.60 1019.11 1018.65 1018.15 1017.61 1016.95 1016.27 1015.88 1015.31 1015.15 1014.92
1019.54 1019.71 1021.26 1024.19 1023.78 1022.05 1019.49 1018.13 1017.67 1017.71 1017.93 1017.21 1017.37 1018.14 1018.59 1019.03 1019.55 1019.88 1019.29 1019.67 1019.93 1020.25 1020.54 1020.80 1021.03 1021.25 1021.30 1021.24 1021.31 1021.26 1020.97 1020.68 1020.21 1019.71 1019.23 1018.79 1018.38 1017.82 1017.04 1016.48 1015.67 1015.03 1014.59 1014.66
1020.27 1020.65 1021.72 1022.91 1022.89 1021.06 1019.11 1018.28 1017.99 1018.59 1018.27 1017.66 1017.87 1018.25 1018.61 1019.16 1019.30 1019.55 1019.76 1020.02 1020.08 1020.25 1020.51 1020.82 1021.04 1021.23 1021.24 1021.15 1021.18 1021.12 1020.85 1020.46 1019.96 1019.57 1019.08 1018.57 1018.13 1017.73 1017.05 1016.46 1015.55 1014.97 1014.11 1014.23
1019.37 1020.34 1021.02 1021.75 1021.81 1020.36 1018.12 1018.64 1018.58 1017.83 1018.01 1017.96 1018.29 1018.61 1019.03 1019.28 1019.36 1019.41 1019.94 1020.13 1020.20 1020.38 1020.56 1020.73 1020.94 1020.99 1020.99 1021.15 1021.25 1021.13 1020.86 1020.26 1019.93 1019.50 1018.94 1018.35 1017.87 1017.49 1016.98 1016.44 1015.50 1014.91 1014.59 1014.38
1019.34 1018.58 1019.22 1019.44 1018.82 1017.78 1017.59 1017.63 1017.53 1017.59 1017.83 1018.46 1018.65 1019.05 1019.42 1019.72 1019.74 1019.67 1019.66 1020.24 1020.48 1020.53 1020.65 1020.60 1021.01 1020.98 1020.85 1021.11 1021.34 1021.35 1020.76 1020.39 1019.86 1019.38 1018.85 1018.19 1017.54 1017.28 1016.84 1016.45 1015.77 1015.12 1014.70 1014.46
1018.72 1018.30 1018.41 1018.82 1017.58 1017.57 1017.64 1017.60 1017.67 1017.94 1018.37 1018.71 1019.01 1019.28 1019.62 1019.95 1019.81 1019.84 1019.82 1019.73 1020.33 1020.58 1020.81 1020.99 1021.36 1021.35 1021.05 1021.14 1021.30 1021.27 1020.90 1020.54 1020.08 1019.48 1018.84 1018.12 1017.47 1016.88 1016.50 1016.31 1015.86 1015.48 1014.89 1014.39
1017.54 1017.84 1017.97 1018.01 1017.68 1017.68 1017.77 1017.90 1018.03 1018.23 1018.53 1018.92 1019.23 1019.57 1019.84 1020.09 1019.88 1019.99 1020.07 1020.20 1020.26 1020.68 1021.03 1021.17 1021.56 1021.43 1021.15 1021.04 1021.05 1021.14 1020.98 1020.80 1020.35 1019.54 1018.73 1017.99 1017.31 1016.83 1016.39 1015.95 1015.77 1015.35 1014.81 1014.39
1016.70 1016.62 1016.99 1017.03 1017.04 1017.14 1017.73 1018.16 1018.43 1018.93 1019.29 1019.58 1019.93 1020.03 1020.14 1020.44 1020.53 1020.54 1020.64 1020.63 1020.85 1020.92 1021.23 1021.47 1021.47 1021.33 1021.04 1021.20 1021.36 1021.32 1021.09 1021.01 1020.58 1019.60 1018.62 1017.68 1016.96 1016.48 1016.18 1015.93 1015.50 1014.93 1014.33 1014.00
Thickness
5647 5644 5639 5649 5650 5654 5643 5650 5655 5663 5668 5667 5663 5665 5670 5684 5688 5690 5696 5701 5706 5711 5723 5723 5723 5722 5722 5722 5718 5718 5715 5712 5705 5699 5694 5690 5688 5684 5681 5677 5672 5665 5660 5655
5632 5635 5646 5646 5645 5652 5648 5649 5650 5656 5659 5659 5659 5663 5669 5676 5688 5695 5698 5702 5703 5708 5716 5719 5720 5721 5721 5724 5722 5717 5716 5715 5710 5705 5701 5697 5690 5686 5682 5677 5673 5667 5663 5657
5628 5643 5640 5642 5638 5637 5639 5637 5642 5643 5645 5647 5647 5651 5658 5680 5683 5695 5697 5697 5701 5704 5710 5715 5717 5719 5719 5716 5718 5720 5721 5718 5715 5710 5700 5691 5686 5681 5677 5674 5671 5668 5663 5657
5626 5639 5635 5634 5634 5635 5629 5639 5642 5638 5633 5622 5634 5622 5648 5668 5672 5684 5687 5691 5695 5700 5706 5707 5710 5712 5713 5713 5713 5715 5716 5714 5713 5708 5701 5696 5691 5685 5683 5679 5672 5668 5661 5656
5623 5623 5628 5628 5634 5635 5632 5636 5634 5629 5616 5622 5621 5614 5642 5657 5665 5679 5677 5682 5685 5688 5691 5695 5697 5699 5702 5704 5706 5706 5707 5707 5704 5701 5699 5693 5688 5686 5680 5673 5667 5662 5657 5654
5614 5621 5624 5628 5624 5632 5623 5620 5609 5598 5599 5598 5612 5616 5625 5648 5667 5674 5671 5671 5672 5676 5680 5685 5688 5689 5692 5692 5694 5695 5696 5697 5695 5694 5691 5688 5684 5677 5670 5665 5662 5657 5653 5649
5605 5610 5616 5621 5613 5618 5618 5607 5584 5584 5574 5590 5601 5602 5622 5647 5658 5662 5662 5660 5659 5661 5666 5669 5672 5676 5678 5678 5680 5683 5683 5685 5684 5682 5680 5678 5675 5671 5667 5662 5657 5649 5645 5641
5584 5585 5603 5614 5614 5605 5600 5605 5581 5566 5564 5588 5591 5601 5629 5644 5645 5644 5646 5647 5646 5649 5651 5655 5658 5658 5659 5664 5667 5671 5671 5670 5670 5670 5669 5666 5663 5660 5656 5651 5647 5646 5642 5638
5579 5588 5598 5603 5606 5608 5594 5589 5595 5566 5486 5548 5589 5608 5632 5632 5629 5628 5630 5634 5635 5640 5643 5646 5647 5646 5644 5648 5652 5653 5654 5656 5657 5657 5654 5652 5650 5646 5644 5641 5638 5636 5632 5629
5585 5579 5581 5588 5594 5592 5596 5592 5574 5554 5551 5547 5580 5592 5605 5614 5612 5616 5613 5616 5622 5628 5631 5631 5633 5635 5636 5637 5638 5639 5641 5639 5640 5639 5639 5638 5639 5636 5633 5630 5628 5625 5622 5618
5578 5578 5563 5570 5573 5576 5577 5578 5572 5575 5561 5549 5536 5582 5606 5607 5606 5601 5601 5602 5607 5613 5616 5616 5617 5617 5618 5621 5624 5624 5625 5625 5625 5625 5623 5622 5623 5621 5619 5617 5615 5613 5610 5607
5572 5562 5540 5559 5570 5574 5580 5577 5575 5559 5554 5536 5555 5576 5601 5595 5595 5595 5597 5602 5601 5596 5596 5598 5600 5600 5601 5601 5603 5605 5607 5608 5607 5607 5607 5609 5609 5607 5606 5603 5601 5599 5599 5597
5564 5549 5515 5546 5553 5559 5563 5567 5569 5564 5547 5536 5547 5577 5585 5580 5580 5583 5586 5584 5579 5579 5577 5576 5576 5577 5580 5581 5583 5584 5586 5587 5589 5589 5592 5592 5592 5590 5590 5590 5589 5588 5587 5585
5555 5541 5549 5555 5557 5555 5549 5553 5557 5563 5543 5559 5562 5575 5573 5572 5575 5569 5566 5563 5563 5559 5559 5561 5564 5565 5566 5566 5565 5567 5571 5571 5571 5572 5574 5577 5577 5576 5576 5575 5575 5574 5572 5571
5540 5523 5524 5529 5535 5539 5537 5538 5539 5545 5551 5549 5564 5556 5568 5566 5564 5563 5550 5551 5553 5551 5551 5549 5546 5547 5548 5552 5552 5553 5552 5553 5553 5556 5556 5555 5555 5557 5558 5560 5560 5560 5559 5558
5514 5505 5508 5503 5503 5515 5520 5525 5528 5528 5531 5535 5541 5557 5564 5555 5541 5536 5533 5535 5535 5534 5534 5533 5530 5529 5528 5528 5529 5530 5530 5530 5529 5531 5533 5534 5535 5535 5536 5537 5537 5539 5541 5542
5489 5480 5476 5489 5474 5487 5493 5513 5516 5518 5521 5531 5530 5560 5540 5524 5526 5523 5517 5521 5521 5519 5515 5512 5509 5508 5508 5508 5508 5507 5508 5509 5509 5508 5509 5510 5514 5516 5517 5519 5520 5521 5521 5522
5467 5469 5458 5445 5432 5469 5511 5500 5506 5508 5521 5524 5531 5532 5521 5515 5511 5509 5504 5509 5503 5499 5497 5494 5491 5489 5487 5486 5486 5486 5486 5488 5488 5488 5488 5487 5489 5493 5493 5493 5496 5498 5500 5500
5465 5458 5413 5430 5370 5456 5502 5488 5486 5488 5505 5506 5506 5507 5502 5499 5490 5494 5485 5485 5489 5486 5482 5477 5473 5470 5468 5466 5464 5462 5461 5462 5464 5466 5466 5466 5466 5469 5472 5476 5476 5477 5476 5475
5445 5452 5440 5347 5392 5412 5470 5487 5485 5485 5462 5493 5490 5484 5488 5485 5479 5468 5475 5474 5473 5467 5462 5460 5456 5452 5450 5448 5445 5443 5443 5442 5444 5445 5445 5444 5443 5445 5450 5453 5457 5459 5460 5459
5433 5425 5425 5380 5370 5405 5445 5459 5466 5434 5470 5448 5465 5465 5468 5465 5463 5463 5456 5453 5452 5449 5448 5443 5439 5435 5434 5431 5428 5425 5424 5425 5425 5424 5425 5425 5426 5426 5428 5431 5435 5438 5442 5439
5436 5428 5420 5397 5403 5414 5446 5436 5442 5449 5443 5447 5449 5452 5452 5447 5447 5447 5440 5436 5435 5435 5431 5429 5426 5424 5419 5414 5408 5407 5405 5407 5405 5405 5406 5407 5406 5405 5407 5409 5415 5416 5417 5417
5409 5419 5407 5416 5429 5442 5429 5436 5432 5430 5429 5434 5436 5433 5430 5426 5428 5429 5432 5423 5416 5417 5417 5414 5406 5406 5403 5394 5388 5387 5387 5385 5386 5385 5383 5384 5387 5384 5383 5384 5390 5393 5392 5393
5399 5403 5395 5401 5426 5423 5419 5419 5416 5415 5413 5418 5416 5415 5411 5407 5409 5412 5413 5417 5406 5396 5392 5388 5383 5383 5384 5371 5367 5363 5363 5361 5361 5363 5361 5361 5364 5366 5363 5360 5361 5363 5367 5369
5398 5396 5385 5381 5407 5408 5403 5402 5400 5400 5395 5392 5391 5391 5389 5385 5393 5391 5392 5389 5384 5374 5368 5363 5358 5359 5360 5355 5350 5341 5339 5336 5339 5342 5342 5343 5345 5344 5344 5343 5339 5339 5342 5346
5391 5393 5395 5381 5395 5393 5387 5376 5377 5375 5374 5372 5369 5369 5368 5364 5365 5365 5364 5359 5355 5354 5345 5340 5339 5338 5339 5331 5327 5320 5316 5313 5315 5322 5324 5327 5329 5328 5325 5324 5324 5326 5329 5330